This is the latest recevied weather packets stored in our database for station/object N0HEQ. If no packets are shown the sender has not sent any weather packets the latest 1 day(s).
| Time | Temp. | Humidity | Pressure | Rain* | Wind** | Luminosity | Snow |
|---|---|---|---|---|---|---|---|
| 1777973487 | 6.67° C | 96% | 1014 hPa | 0 mm | 0.89 m/s, 101° | 0 W/m² | - |
| 1777973184 | 7.78° C | 96% | 1013.6 hPa | 0 mm | 1.34 m/s, 239° | 0 W/m² | - |
| 1777972883 | 8.33° C | 97% | 1013.9 hPa | 0 mm | 0.45 m/s, 79° | 0 W/m² | - |
| 1777972579 | 8.33° C | 97% | 1013.9 hPa | 0 mm | 0.45 m/s, 55° | 0 W/m² | - |
| 1777972278 | 8.33° C | 96% | 1013.6 hPa | 0 mm | 0.45 m/s, 44° | 0 W/m² | - |
| 1777971975 | 8.33° C | 96% | 1013.6 hPa | 0 mm | 0 m/s | 0 W/m² | - |
| 1777971673 | 8.33° C | 96% | 1013.7 hPa | 0 mm | 0.89 m/s, 40° | 0 W/m² | - |
| 1777971370 | 8.33° C | 96% | 1013.5 hPa | 0 mm | 0.45 m/s, 315° | 0 W/m² | - |
| 1777971069 | 8.33° C | 96% | 1013.6 hPa | 0 mm | 0.89 m/s, 54° | 0 W/m² | - |
| 1777970766 | 7.78° C | 96% | 1013.9 hPa | 0 mm | 0.89 m/s, 35° | 0 W/m² | - |
| 1777970464 | 7.78° C | 96% | 1013.7 hPa | 0 mm | 0 m/s | 0 W/m² | - |
| 1777970161 | 7.78° C | 96% | 1014 hPa | 0 mm | 0 m/s | 0 W/m² | - |
| 1777969857 | 7.78° C | 96% | 1013.6 hPa | 0 mm | 0 m/s | 0 W/m² | - |
| 1777969553 | 7.78° C | 96% | 1013.7 hPa | 0 mm | 0 m/s | 0 W/m² | - |
| 1777969250 | 7.78° C | 96% | 1013.7 hPa | 0 mm | 0.45 m/s, 68° | 0 W/m² | - |
| 1777968947 | 7.78° C | 96% | 1013.9 hPa | 0 mm | 0.45 m/s, 10° | 0 W/m² | - |
| 1777968644 | 7.78° C | 96% | 1014 hPa | 0 mm | 0.89 m/s, 66° | 0 W/m² | - |
| 1777968340 | 7.78° C | 96% | 1014.2 hPa | 0 mm | 0 m/s | 0 W/m² | - |
| 1777968037 | 7.78° C | 96% | 1013.9 hPa | 0 mm | 0 m/s | 0 W/m² | - |
| 1777967733 | 7.78° C | 96% | 1013.7 hPa | 0 mm | 0.89 m/s, 105° | 0 W/m² | - |
| 1777967430 | 7.78° C | 96% | 1013.7 hPa | 0 mm | 0.45 m/s, 53° | 0 W/m² | - |
| 1777967127 | 7.78° C | 96% | 1013.9 hPa | 0 mm | 0.89 m/s, 71° | 0 W/m² | - |
| 1777966824 | 8.33° C | 96% | 1013.9 hPa | 0 mm | 0.89 m/s, 45° | 0 W/m² | - |
| 1777966521 | 8.33° C | 96% | 1014.1 hPa | 0 mm | 0 m/s | 0 W/m² | - |
| 1777966220 | 8.33° C | 96% | 1014.4 hPa | 0 mm | 0.89 m/s, 100° | 0 W/m² | - |
* Rain latest hour (hover to see other rain measurements)
** Current wind speed in m/s (hover to see current wind gust speed)